{"data":{"norad_id":61866,"epoch":"2026-09-21T13:57:30.496608Z","epoch_age_seconds":95045,"freshness":"FRESH","line1":"1 61866U 24202X   26264.58160297 -.00000053  00000+0  75894-5 0  9991","line2":"2 61866  43.0047 211.9636 0001131 268.7466  91.3256 15.27573466105299","mean_motion":15.27573466,"eccentricity":0.0001131,"inclination_deg":43.0047,"raan_deg":211.9636,"arg_perigee_deg":268.7466,"mean_anomaly_deg":91.3256,"bstar":7.5894e-6,"rev_number":10529,"period_min":94.267151927605,"perigee_km":482.2926588957,"apogee_km":483.84466361628,"semimajor_km":6861.205661256,"source":"CELESTRAK","updated_at":"2026-09-22T09:00:49.444055Z"}}